Torna al catalogo

FENGYUN 1C DEB

AttivoSSO
NORAD 29907·DEBRIS·🇨🇳 China

Lanciato May 10, 1999 da Taiyuan Satellite Launch Center

Loading…

Prossimi Passaggi (prossime 24 ore)

TLE

AggiornatoSource: Space-Track

Epoca: Sep 14, 2026, 03:16 UTC

1 29907U 99025HD  26257.13614708  .00001581  00000-0  84647-3 0  9991
2 29907  99.0949 333.0610 0083345 195.1417 193.6609 14.12863885  4875

Traccia FENGYUN 1C DEB in tempo reale con AllMySat

Download on the App Store